Location: Newark
(37.0133°S, 81.3511°E)
Time: 01:31:53
(UTC+00:00)

N. Korean satellite - Pass Details

Date: 30 January 2020
Orbit: 456 x 505 km, 97.2° (Epoch: 25 February)

Event Time Altitude Azimuth Distance (km) Brightness Sun altitude
Rises 22:48:09 0° 44° (NE) 2,604 10.4 -11.4°
Reaches altitude 10° 22:50:36 10° 61° (ENE) 1,727 9.7 -11.0°
Maximum altitude 22:53:24 21° 110° (ESE) 1,210 9.7 -10.5°
Drops below altitude 10° 22:56:13 10° 158° (SSE) 1,739 10.2 -10.0°
Sets 22:58:41 0° 175° (S) 2,627 10.8 -9.6°
